Temp
13 14 14 15 15 16 17 18 18 19 19 20 20 20 21 21 23 21 28 31 29 28 25 27 28 29 30 33 33 34 36 36 36 35 36 35 33 33 33 31 31 31 32 30 27
12 13 14 14 15 16 16 17 18 19 19 20 20 21 21 21 21 27 30 29 28 27 28 29 31 31 33 34 34 35 36 36 37 37 36 35 35 32 32 31 30 30 31 29 27
12 13 13 15 16 16 17 18 18 19 19 20 20 21 21 21 26 33 28 27 27 28 30 31 33 33 34 35 35 36 37 37 37 37 37 36 35 34 33 31 32 31 30 29 28
12 12 13 15 16 16 17 18 19 19 19 19 19 20 21 20 31 30 28 27 27 27 29 31 33 33 34 35 36 35 37 37 37 37 37 36 36 34 34 33 33 32 30 29 29
12 13 14 15 16 17 17 18 18 19 19 19 19 19 18 26 29 27 27 27 24 28 30 32 33 34 35 36 36 35 37 37 37 36 37 36 35 34 34 33 33 32 30 30 30
12 13 13 15 16 17 17 18 18 20 20 19 17 17 21 26 29 28 27 26 28 29 31 32 34 35 35 36 36 37 37 37 37 36 36 35 35 34 33 33 32 31 31 31 31
11 13 14 15 16 17 17 18 19 18 19 18 17 15 23 28 27 26 27 27 28 29 32 32 33 34 35 35 37 37 37 36 37 36 35 36 34 34 34 32 31 31 31 31 31
12 13 13 15 16 17 18 17 17 18 19 19 15 16 25 26 25 26 27 28 28 29 31 32 32 34 34 36 36 36 37 37 36 36 35 36 35 35 34 33 31 31 31 30 30
12 12 13 15 16 17 18 17 16 15 16 16 17 20 28 24 25 27 28 30 29 30 30 31 32 33 35 34 37 37 37 37 35 36 35 35 35 35 34 33 32 31 31 31 30
11 12 13 15 16 17 18 16 15 14 15 15 18 21 26 29 28 27 28 29 30 31 31 32 33 33 34 36 36 37 37 38 37 36 36 35 35 34 33 34 33 32 31 31 31
11 11 12 15 15 17 17 20 22 23 22 23 25 25 27 27 27 28 27 29 31 31 31 32 32 32 35 36 38 39 38 38 39 38 36 36 36 35 34 34 34 33 32 31 31
11 11 11 15 15 16 17 20 16 14 17 22 24 24 24 26 26 29 28 30 30 30 32 32 32 35 36 36 36 37 38 38 39 38 37 37 37 37 35 34 35 34 33 32 32
10 11 12 14 15 16 16 14 13 14 18 24 26 25 26 26 26 30 30 31 31 31 32 32 34 35 35 35 35 36 37 38 38 37 37 37 37 37 36 35 35 35 35 34 33
10 11 11 14 15 15 18 15 14 14 21 27 26 26 25 26 27 30 30 32 31 32 33 33 35 34 34 34 35 36 38 38 38 37 36 37 36 38 38 35 35 35 35 35 34
10 11 11 12 13 18 15 14 14 15 24 27 26 26 27 27 30 31 30 31 31 32 33 32 34 33 33 34 36 36 38 37 38 37 38 37 37 39 38 36 36 36 35 35 35
10 11 12 13 13 15 14 14 16 22 23 26 26 26 26 27 28 29 30 32 32 32 33 34 35 34 34 35 36 37 37 37 37 38 36 37 37 38 38 38 39 38 36 36 35
11 10 10 11 15 14 14 19 22 22 26 26 25 25 26 27 28 29 28 29 30 30 30 32 33 34 34 34 36 36 36 34 34 35 35 38 37 38 40 40 40 40 39 37 36
11 10 11 12 13 13 16 21 20 24 25 27 25 25 26 27 28 29 29 29 31 32 33 31 32 33 34 34 34 34 36 36 33 35 36 37 35 38 40 41 41 40 40 39 37
10 13 14 14 13 14 19 20 22 23 23 23 23 24 25 26 25 27 29 30 31 33 33 32 33 34 34 34 36 34 35 38 37 38 37 37 37 39 39 40 40 40 40 39 38
10 13 15 13 13 16 18 18 20 20 20 21 21 23 23 25 24 26 29 31 31 33 35 34 32 34 34 35 36 36 37 36 37 35 34 37 37 38 39 40 40 41 41 40 39
12 15 14 14 14 18 18 19 17 18 18 19 21 21 23 23 23 24 28 30 31 33 34 35 34 33 33 33 34 34 35 36 38 37 36 36 38 40 40 40 40 41 41 41 40
13 15 14 13 17 16 17 15 13 16 18 19 20 20 21 22 22 23 25 26 26 30 32 33 34 33 33 34 36 36 36 36 36 35 37 38 38 42 41 41 41 41 40 39 39
13 13 13 14 15 15 15 14 15 15 16 18 19 20 21 21 21 23 24 26 26 27 30 33 32 32 32 34 34 35 35 37 37 38 36 36 37 40 40 40 40 40 40 38 37
13 14 16 15 14 13 13 13 13 15 15 16 17 19 19 20 22 22 23 24 25 26 21 25 32 32 33 33 34 33 34 36 36 37 37 37 38 39 39 39 40 40 39 39 36
13 13 11 13 13 12 12 12 11 9 11 11 16 18 18 19 21 21 23 24 25 24 26 27 29 32 34 35 35 33 34 35 35 36 36 38 38 39 39 39 40 40 38 38 38
11 11 12 12 11 11 12 11 8 9 8 9 12 14 17 18 20 21 21 21 23 24 25 28 28 31 32 34 34 34 34 35 35 36 37 38 38 40 40 40 40 40 40 39 39
8 9 10 11 11 12 12 12 11 9 10 9 10 13 17 18 17 18 19 20 21 21 22 25 28 30 30 33 33 32 34 34 35 36 37 36 37 39 38 38 38 39 40 40 40
Height
823 820 816 812 808 804 800 796 793 789 786 783 780 778 776 772 768 767 763 759 757 758 763 766 768 767 767 760 759 752 756 760 757 760 752 751 762 762 763 773 775 777 777 787 801
824 820 815 811 807 803 799 794 790 787 783 780 778 775 773 770 766 759 754 753 754 756 761 761 761 762 760 756 754 754 754 754 741 740 745 750 755 765 770 776 779 781 782 793 802
825 820 815 811 806 801 796 792 788 784 780 777 775 773 772 769 763 743 748 747 751 754 758 758 757 759 758 751 749 746 752 741 739 737 735 746 754 757 766 779 774 781 785 792 800
825 821 816 810 805 800 794 789 784 780 777 774 772 771 771 771 765 747 747 745 750 756 757 757 756 759 758 757 743 757 739 739 737 736 739 748 747 760 762 764 764 773 785 794 797
825 820 815 809 804 798 792 785 780 776 772 770 768 769 771 765 752 748 749 750 755 756 754 753 754 752 755 745 745 751 739 735 734 737 739 742 753 758 764 762 766 774 784 792 797
824 819 813 807 801 795 788 782 777 771 767 765 764 767 769 766 745 747 750 752 753 754 751 751 748 744 747 746 747 738 738 736 734 739 742 750 755 758 764 763 769 776 783 789 794
824 818 811 804 798 791 785 779 773 768 765 762 761 764 764 747 744 745 746 747 750 750 747 749 747 747 741 746 735 738 745 740 738 742 749 744 766 764 758 764 772 777 783 788 792
823 817 810 803 795 788 782 774 770 767 763 759 759 765 751 741 743 744 744 745 746 748 748 747 749 745 747 737 741 746 739 752 743 742 746 748 765 753 756 763 773 777 781 786 790
822 816 810 802 794 786 779 772 769 767 764 761 764 762 742 739 739 738 741 739 742 746 747 747 749 747 744 753 747 741 750 745 752 738 748 754 759 751 754 761 770 775 779 784 787
821 815 808 801 792 785 778 772 768 766 766 765 764 763 739 733 733 735 737 739 740 742 746 745 745 750 747 746 759 747 747 737 747 743 744 753 755 757 756 758 765 769 775 780 782
820 814 807 800 792 785 777 773 768 760 761 757 748 743 736 735 735 732 734 737 738 742 749 741 750 753 738 733 723 723 734 739 729 729 744 747 749 752 755 756 759 764 770 774 776
818 812 805 798 792 787 783 781 792 794 771 751 740 739 736 738 739 727 731 731 734 742 737 746 748 728 726 728 732 734 734 736 724 729 739 738 746 738 747 752 749 756 762 766 771
818 811 803 796 791 790 789 791 792 791 774 733 726 728 728 731 731 720 723 720 727 732 731 737 724 721 730 734 739 737 736 731 734 734 732 738 747 740 737 744 744 746 750 757 761
816 809 802 795 793 791 788 790 789 788 762 723 723 723 725 725 723 713 715 714 720 725 723 727 711 722 732 738 733 739 719 722 731 742 759 735 765 733 732 742 742 742 744 747 753
815 808 801 796 797 790 793 788 786 786 762 721 723 723 720 723 707 702 707 710 716 714 717 724 718 728 734 729 721 726 714 726 728 737 735 744 756 727 724 739 735 734 735 737 742
812 806 799 798 796 794 790 786 784 770 758 732 723 727 725 716 714 705 704 704 703 711 708 709 701 712 716 713 713 712 722 727 728 731 758 739 746 733 727 724 715 716 723 727 733
810 804 798 798 795 791 787 781 769 761 725 729 730 727 725 717 712 708 711 712 713 727 727 717 710 707 706 720 713 719 731 759 768 761 761 723 743 728 705 704 707 706 709 714 722
807 802 800 798 795 790 785 771 772 742 735 720 732 728 727 716 708 703 706 708 696 694 704 718 726 709 699 708 716 722 717 736 775 764 750 730 752 730 698 692 695 696 697 704 713
805 801 798 797 793 789 779 767 751 743 744 743 739 736 724 717 725 711 698 696 687 682 696 708 710 690 695 698 700 718 724 699 721 720 733 727 727 704 698 699 696 697 697 700 704
808 800 796 795 792 787 775 767 756 758 756 751 751 735 736 724 729 713 696 682 682 675 667 684 708 687 693 693 691 695 701 723 713 749 762 729 728 725 706 703 695 694 694 695 696
807 795 794 793 789 779 770 761 768 766 768 759 749 743 736 734 731 726 698 680 676 673 670 671 687 695 693 698 701 708 706 702 703 712 737 749 725 688 695 691 694 687 685 685 687
808 793 796 793 778 778 772 779 785 776 768 759 752 747 740 736 733 728 716 700 697 679 681 671 680 690 695 682 678 687 694 701 717 727 712 712 717 666 679 683 684 685 685 683 681
808 802 798 792 781 779 780 781 779 775 770 757 749 741 739 739 741 725 718 702 702 694 684 672 685 700 699 688 684 688 688 687 692 694 719 732 716 673 679 683 684 684 685 685 684
810 795 789 793 792 791 786 783 778 772 770 762 754 743 742 735 729 727 717 710 705 700 706 697 672 677 687 685 680 693 689 684 692 704 704 707 703 686 688 689 681 683 684 683 688
811 801 809 793 791 794 791 788 786 794 781 775 754 742 742 737 729 725 718 713 707 703 697 692 688 670 663 662 668 685 688 685 692 689 699 686 698 685 682 684 679 679 684 684 686
814 810 805 800 799 795 786 791 803 796 793 784 767 758 747 737 726 719 723 725 713 707 701 684 690 674 678 662 665 678 680 680 685 687 684 682 685 665 668 668 677 676 677 684 684
820 818 815 800 795 788 782 784 784 792 784 783 779 760 741 738 743 741 735 729 722 724 716 699 684 682 688 667 673 688 673 675 678 677 679 691 681 668 677 680 681 676 675 678 678
Wind_Speed
26 27 27 27 26 25 26 24 24 24 23 23 23 23 21 22 21 7 11 9 8 14 18 14 12 11 11 7 9 5 6 1 3 0 9 13 9 5 5 11 6 9 5 25 28
29 30 31 30 30 29 28 26 25 24 24 23 23 22 20 20 15 17 17 18 14 20 22 20 14 13 8 8 5 7 5 4 4 4 2 13 9 10 7 12 9 11 11 27 29
31 33 34 33 32 31 30 28 26 27 25 24 21 19 16 15 10 5 3 13 17 22 18 17 10 12 13 8 8 4 6 5 3 1 3 12 9 7 8 9 12 15 20 26 29
31 33 35 34 33 33 32 30 29 25 23 22 20 16 10 5 6 4 8 10 16 20 14 14 13 15 10 11 7 9 6 5 4 3 7 10 11 7 7 6 12 16 21 25 23
33 35 36 36 36 35 35 31 25 26 25 23 18 10 3 7 10 6 6 11 19 14 18 16 15 15 11 6 8 11 6 4 3 6 7 9 10 6 8 4 14 17 22 24 20
35 36 38 38 37 38 34 25 30 27 20 16 13 4 6 11 4 11 12 13 13 15 16 18 12 15 8 8 9 1 6 4 7 10 10 10 10 8 9 10 15 18 23 22 22
37 37 37 38 39 39 30 30 28 17 15 15 9 8 9 15 4 6 16 19 18 20 15 19 12 11 4 7 9 7 7 6 12 13 11 7 9 9 13 12 16 19 21 21 20
36 38 39 39 40 36 30 29 14 11 13 9 6 7 7 4 11 11 8 11 15 18 14 17 12 13 9 4 8 11 10 11 12 13 7 14 9 11 13 14 15 18 19 19 20
36 38 39 39 40 29 30 21 6 8 8 9 4 6 5 2 8 17 16 10 16 16 8 12 14 13 11 12 12 10 12 11 12 14 9 12 9 12 12 13 13 16 18 18 19
37 39 40 39 39 24 26 10 6 5 3 5 3 6 6 1 1 6 23 16 13 16 9 12 11 12 14 14 16 16 15 14 12 15 11 13 7 7 13 14 13 15 17 19 20
37 39 40 39 33 25 19 8 5 5 4 10 16 18 14 6 6 10 13 23 19 15 15 18 16 19 22 19 19 15 16 15 14 13 15 12 11 13 13 14 15 15 18 19 20
38 39 41 37 25 20 10 6 6 6 14 17 24 23 30 20 7 11 16 19 20 21 22 15 20 21 18 19 21 12 16 16 13 11 14 11 11 9 14 17 17 18 18 20 20
37 38 40 36 12 12 9 9 9 10 8 15 10 12 13 18 14 15 21 23 25 25 26 22 20 20 19 18 20 19 18 17 13 11 14 9 11 10 13 16 16 17 18 19 21
37 39 38 31 4 12 1 15 11 5 6 0 2 2 5 9 12 21 25 19 18 27 26 26 22 21 19 22 21 22 18 15 12 11 12 15 10 15 14 15 18 19 20 20 21
38 37 35 15 9 6 14 18 10 5 7 7 6 3 1 11 8 22 25 22 19 22 25 24 22 20 23 22 22 20 17 15 14 17 16 13 10 3 11 12 18 20 21 21 21
38 38 28 8 5 12 19 16 4 7 7 4 2 3 10 6 14 2 27 23 16 21 27 26 16 19 23 21 23 18 12 15 10 13 14 16 13 13 13 13 13 18 20 22 23
37 35 10 6 10 19 17 6 7 8 3 1 3 6 13 10 10 15 23 28 21 20 20 25 21 19 17 21 23 21 19 11 12 11 10 19 12 14 3 6 3 7 18 21 23
38 20 6 4 17 15 11 8 10 7 13 6 12 16 17 14 12 18 16 24 30 24 20 24 26 25 19 22 19 27 23 16 18 15 14 7 10 14 14 12 6 5 9 16 21
34 16 2 11 15 8 7 9 10 6 7 11 15 19 16 6 5 8 23 24 31 28 18 22 26 26 22 18 24 25 24 25 21 19 14 13 14 15 9 9 9 8 8 12 18
21 11 2 16 13 10 7 11 8 2 10 12 14 11 11 4 8 4 14 20 28 32 26 17 21 23 22 25 24 22 25 24 15 23 18 16 16 11 17 15 12 10 9 7 12
12 6 6 18 8 6 7 9 7 10 13 10 14 18 13 13 7 11 8 2 12 29 26 18 18 20 23 22 24 18 23 22 19 17 15 16 14 13 10 11 8 6 2 2 10
8 5 11 17 6 1 6 9 9 15 15 18 18 18 17 13 14 14 10 11 14 16 31 27 12 17 27 22 24 23 23 28 16 23 20 13 13 15 12 10 7 2 4 7 7
8 4 7 15 4 7 9 14 16 18 18 16 16 15 19 18 13 15 14 5 9 10 5 24 16 16 18 24 25 28 26 27 27 19 21 17 13 12 8 7 8 2 4 7 4
5 4 2 2 3 8 11 14 13 11 14 18 19 12 16 14 17 10 10 5 11 14 16 8 20 23 17 22 24 25 28 27 28 20 21 24 24 9 11 8 8 8 2 8 6
2 4 4 6 7 10 10 13 15 13 6 10 12 7 5 11 17 20 18 13 15 2 9 6 20 22 21 23 24 26 25 27 26 28 27 25 24 22 16 9 6 6 2 2 4
4 3 2 10 8 9 6 4 5 12 4 8 5 5 6 8 8 8 2 12 8 7 9 6 14 21 21 14 18 28 28 29 27 25 27 25 23 20 21 14 10 10 6 3 2
2 3 3 6 6 8 6 7 13 9 6 6 9 14 5 8 14 17 15 15 16 12 8 7 13 21 19 22 14 21 24 28 24 27 25 23 17 11 14 13 14 13 11 8 5
Wind_Direction
9 7 4 2 359 355 351 346 342 337 333 330 328 328 329 327 323 291 258 256 218 191 158 169 185 186 193 237 239 260 256 28 87 243 122 148 146 130 99 143 166 175 157 146 152
11 8 4 1 358 354 349 343 337 333 328 324 322 323 326 328 311 272 257 240 214 183 171 177 186 185 208 231 215 247 288 32 2 10 152 158 154 140 160 154 153 145 138 146 156
10 7 4 2 357 352 346 341 335 327 322 318 315 317 324 330 280 265 261 225 195 183 188 194 207 207 232 230 207 203 285 31 4 299 156 153 149 147 147 178 167 162 152 157 163
8 5 4 0 354 350 345 338 328 324 322 317 312 312 324 309 269 106 52 152 168 170 193 202 207 206 226 216 197 251 241 293 9 131 157 158 136 165 178 88 161 158 161 164 169
6 5 1 359 354 349 344 336 331 324 317 306 299 303 318 231 246 182 139 129 162 185 194 197 201 212 235 223 212 240 282 318 222 161 159 145 157 121 160 120 148 150 164 171 176
5 3 359 356 352 348 343 338 328 323 315 305 290 181 226 252 245 201 175 165 184 201 207 206 211 216 283 247 240 68 297 328 166 147 150 173 149 185 131 134 148 158 169 176 178
2 360 356 353 350 347 342 332 327 332 321 302 277 175 236 244 235 182 211 221 223 217 219 211 217 209 231 237 232 244 240 129 151 152 154 164 175 207 135 148 154 167 173 180 181
1 358 355 352 348 346 338 332 333 351 345 314 177 185 252 228 233 222 196 203 204 208 223 207 204 238 241 319 220 226 236 179 159 169 147 212 126 160 159 162 164 173 178 183 185
359 356 355 352 347 345 344 336 335 346 359 69 133 240 256 219 224 217 203 189 172 178 201 190 204 223 202 229 205 201 210 210 160 196 153 213 77 130 170 176 172 179 184 187 187
357 355 352 353 346 351 340 331 300 1 342 269 250 236 233 101 208 203 200 187 158 162 170 179 193 205 220 209 209 197 233 184 179 190 194 195 196 149 182 186 182 185 189 193 193
356 354 350 351 347 348 348 300 289 188 322 291 294 279 274 338 245 209 186 197 207 204 199 194 203 208 205 212 234 222 204 203 197 158 200 221 215 171 189 198 192 191 194 198 201
354 352 348 349 344 7 6 50 47 328 295 273 257 255 258 270 275 214 176 180 190 200 202 186 219 212 218 211 229 241 221 213 185 165 215 216 229 212 191 210 204 196 195 202 201
353 351 346 347 353 6 45 52 334 321 266 296 265 256 242 208 221 210 191 205 194 199 200 205 214 215 209 215 219 223 226 219 213 183 219 258 243 230 197 213 217 208 201 202 203
351 350 346 344 322 342 15 340 329 293 278 199 156 138 189 223 231 218 200 197 204 205 203 219 219 206 202 219 208 215 217 236 213 196 219 198 247 194 198 205 216 212 207 204 202
348 348 345 354 322 339 325 326 319 210 304 41 91 101 8 222 351 192 195 211 212 203 201 212 216 195 210 210 209 223 185 215 219 212 241 186 244 171 171 201 214 214 211 210 202
346 345 342 347 301 333 320 316 230 237 252 317 60 342 335 266 245 297 194 209 229 215 208 223 198 207 217 211 212 214 193 213 213 230 222 232 217 225 178 216 212 203 210 209 208
343 341 351 350 335 324 321 265 247 244 103 235 307 307 318 303 265 226 194 201 199 195 204 214 198 221 219 209 209 203 196 188 207 212 229 213 207 246 107 144 183 190 202 204 204
340 349 317 331 331 320 302 244 248 267 246 302 311 302 287 298 280 214 208 208 208 203 191 198 205 206 194 211 190 200 204 210 197 207 213 161 225 232 243 243 248 237 206 196 202
341 339 270 343 340 318 278 244 253 309 346 308 304 279 277 260 278 300 223 218 205 207 215 201 216 187 199 200 205 202 217 217 223 227 225 189 221 258 190 204 219 218 196 195 201
334 326 2 343 332 290 257 258 293 322 320 284 274 279 267 278 294 300 234 220 217 215 227 196 212 185 197 198 212 221 206 215 229 220 219 230 218 218 204 214 225 207 198 191 199
321 306 28 339 310 247 267 304 334 326 308 274 267 266 261 266 291 300 277 144 244 211 220 228 223 179 186 203 191 198 207 219 213 228 211 229 215 225 182 179 193 229 319 286 209
316 313 4 341 272 300 303 348 309 286 287 270 266 263 270 269 277 269 262 324 341 285 207 224 208 223 205 198 216 201 208 204 218 204 236 241 230 175 189 200 221 148 40 346 260
321 303 339 322 346 334 321 304 292 280 271 256 255 247 250 247 259 243 256 291 331 319 262 209 230 212 183 199 205 210 210 208 220 221 215 228 226 142 141 172 175 179 65 44 141
300 312 31 323 351 322 328 313 310 302 278 262 262 288 253 235 240 259 248 323 318 311 334 292 228 222 202 203 193 205 207 214 211 219 209 218 228 186 200 225 244 183 61 56 129
292 31 19 320 333 325 309 295 322 309 320 291 239 235 287 244 240 241 253 281 282 98 291 247 222 219 227 196 201 199 213 211 216 221 222 220 217 237 194 210 186 157 141 37 121
305 329 312 299 307 298 291 300 290 308 299 303 321 298 276 253 262 309 277 264 274 332 310 254 223 223 221 210 221 202 205 212 211 221 235 235 242 217 240 234 234 244 231 245 277
293 268 293 287 291 286 318 313 305 306 282 240 303 313 298 28 330 295 287 279 278 296 311 296 222 210 214 211 202 210 201 212 211 219 222 226 221 193 215 230 241 246 264 279 270